Regional Weather Roundup
Issued by NWS

Home | Current Version | Previous Version | Text Only | Print | Product List | Glossary Off
Versions: 1 2 3 4 5 6 7 8 9 10 11 12 13 14 15 16 17 18 19 20 21 22 23 24 25 26 27 28 29 30 31 32 33 34 35 36 37 38 39 40 41 42 43 44 45 46 47 48 49 50

000
ASUS45 KBOU 011907
RWRCO

WEATHER ROUNDUP FOR COLORADO
NATIONAL WEATHER SERVICE DENVER/BOULDER CO
100 PM MDT TUE SEP 01 2015

NOTE: "FAIR" INDICATES FEW OR NO CLOUDS BELOW 12000 FEET WITH NO
SIGNIFICANT WEATHER AND/OR OBSTRUCTIONS TO VISIBILITY.

COZ001>005-013-030-031-012000-
...NORTHWEST COLORADO...

CITY           SKY/WX    TMP DP  RH WIND       PRES   REMARKS
CRAIG          MOSUNNY   78  45  30 W7        30.16F
HAYDEN         NOT AVBL
MEEKER         SUNNY     76  47  35 CALM      30.18F
MOUNT WERNER   NOT AVBL
STEAMBOAT SPGS MOSUNNY   77  46  33 SW8       30.21F
WALDEN         MOSUNNY   70  32  24 W10G20    30.30F
$$

COZ006>008-011-012000-
...WEST CENTRAL VALLEYS...

CITY           SKY/WX    TMP DP  RH WIND       PRES   REMARKS
GRAND JUNCTION MOSUNNY   78  49  35 CALM      30.11F
MONTROSE       SUNNY     83  45  26 VRB3      30.17F
EAGLE          MOSUNNY   73  32  21 SW6       30.23F
RIFLE          MOSUNNY   73  51  46 S7        30.16F
DELTA          SUNNY     86  44  23 SE5       30.13F
NUCLA          SUNNY     82  37  20 W9        30.22F
$$

COZ017>023-064>068-012000-
...SOUTHWEST COLORADO...

CITY           SKY/WX    TMP DP  RH WIND       PRES   REMARKS
DURANGO        MOSUNNY   78  42  27 CALM      30.25F
CORTEZ         SUNNY     81  46  29 SW9       30.19F
PAGOSA SPRINGS MOSUNNY   74  36  25 S6        30.33F
TELLURIDE      MOSUNNY   69  38  31 S3        30.42F
WOLF CREEK PAS PTSUNNY   52  36  54 S9G21     30.64F
$$

COZ009-010-012-014-032>034-037-058>063-012000-
...CENTRAL COLORADO...

CITY           SKY/WX    TMP DP  RH WIND       PRES   REMARKS
ASPEN          PTSUNNY   69  46  43 NW20G26   30.30F
BUENA VISTA    PTSUNNY   76  34  21 W6        30.29F
COPPER MTN     PTSUNNY   55  30  38 W10       30.62S
BERTHOUD PASS  FAIR      48  36  61 MISG      30.64F
COTTONWOOD PAS PTSUNNY   68  34  28 E6        30.44F
GUNNISON       MOSUNNY   73  41  31 SW8       30.33F
KREMMLING      MOSUNNY   73  37  27 CALM      30.28F
LEADVILLE      MOSUNNY   66  32  28 NW10G18   30.43F
MONARCH PASS   MOSUNNY   55  34  44 SW18G24   30.71F
SALIDA         PTSUNNY   75  49  40 NW7       30.33F
SUNLIGHT       MOSUNNY   61  48  63 CALM      30.55F
WILKERSON PASS MOSUNNY   64  32  29 CALM      30.57F
$$

COZ069>075-012000-
...SAN LUIS VALLEY/SANGRE DE CRISTO MOUNTAINS...

CITY           SKY/WX    TMP DP  RH WIND       PRES   REMARKS
ALAMOSA        MOSUNNY   70  46  42 VRB3      30.31F
LA VETA PASS   PTSUNNY   64  43  45 SW3G16    30.49F
SAGUACHE       MOSUNNY   73  39  29 SW7       30.31F
$$

COZ035-036-038>040-012000-
...NORTHERN COLORADO FRONT RANGE...

CITY           SKY/WX    TMP DP  RH WIND       PRES   REMARKS
DENVER INTL AP MOSUNNY   86  36  16 CALM      30.09F
DMNS CITY PARK   N/A     88  40  18 SW6G14    30.07F
AURORA         MOSUNNY   85  40  20 SW2       30.11F
FRONT RANGE AP MOSUNNY   84  32  15 MISG      30.11F
ERIE MUNI ARPT MOSUNNY   88  36  16 CALM      30.06F
BOULDER MUN AP MOSUNNY   88  36  15 W8        30.06F
CENTENNIAL     MOSUNNY   84  37  18 E7        30.13F
BROOMFIELD     NOT AVBL
FORT COLLINS   SUNNY     88  48  25 S8        30.04F
LONGMONT       SUNNY     92  37  14 NW8       30.06S
$$

COZ041-046-047-076>085-087-088-012000-
...PIKES PEAK/PALMER DIVIDE AND SOUTHERN FOOTHILLS...

CITY           SKY/WX    TMP DP  RH WIND       PRES   REMARKS
COLO. SPRINGS  MOSUNNY   82  37  20 SE9       30.16F
A. F. ACADEMY  MOSUNNY   80  38  22 VRB6G21   30.17F
ELLICOTT       SUNNY    N/A N/A N/A SW3       30.15F
FALCON         SUNNY     80  38  22 MISG      30.22F
FORT CARSON    SUNNY     82  44  26 S6        30.13F
LIMON          MOSUNNY   82  46  28 CALM      30.11F
MONUMENT HILL  SUNNY     77  36  22 CALM      30.23F
TRINIDAD       MOSUNNY   84  42  22 CALM      30.14F
$$

COZ042>045-048>051-090-091-012000-
...NORTHEAST COLORADO...

CITY           SKY/WX    TMP DP  RH WIND       PRES   REMARKS
GREELEY ARPT   SUNNY     90  46  22 S7        30.05F
AKRON          SUNNY     87  41  19 MISG      30.05F
BURLINGTON     MOSUNNY   88  54  31 CALM      30.03F
WRAY           CLOUDY    91  50  24 W3        29.99F
STERLING       NOT AVBL
HOLYOKE        SUNNY     90  50  25 CALM      29.98
FORT MORGAN    SUNNY     87  44  22 S7        30.04F
$$

COZ086-089-092>099-012000-
...SOUTHEAST COLORADO...

CITY           SKY/WX    TMP DP  RH WIND       PRES   REMARKS
PUEBLO         SUNNY     91  41  17 VRB5      30.05F
LA JUNTA       SUNNY     89  52  28 MISG      30.03F
LAMAR          SUNNY     88  59  37 VRB5      29.99F
SPRINGFIELD      N/A     88  55  32 VRB7      30.05S
$$




USA.gov is the U.S. government's official web portal to all federal, state and local government web resources and services.